カタログに戻る

STARLINK-34501

運用中通信VLEO
NORAD 64429·PAYLOAD·🇺🇸 United States

打ち上げ Jun 17, 2025 から Vandenberg Space Force Base

Loading…

次のパス (今後24時間)

TLE

最新Source: CelesTrak SupGP

元期: Sep 15, 2026, 03:42 UTC

1 64429C 25129T   26258.15465278  .00023177  00000+0  80540-3 0  2582
2 64429  69.9997 315.0804 0002913 271.2261 288.1295 15.29602222    10

AllMySatでSTARLINK-34501をリアルタイム追跡

Download on the App Store